Torna al catalogo

DELTA 1 DEB

AttivoPO
NORAD 21501·DEBRIS·🇺🇸 United States

Lanciato Jun 12, 1975 da Vandenberg Space Force Base

Loading…

Prossimi Passaggi (prossime 24 ore)

TLE

AggiornatoSource: Space-Track

Epoca: Sep 14, 2026, 14:47 UTC

1 21501U 75052FW  26257.61638515  .00000130  00000-0  63960-3 0  9996
2 21501  99.7893 137.3818 0551016   9.4040  18.0756 12.47855365608515

Traccia DELTA 1 DEB in tempo reale con AllMySat

Download on the App Store